Location: ??????
(38.1303°N, 24.0039°E)
Time: 06:30:03
(UTC+00:00)

Cosmos 1242 Rocket - Pass Details

Date: 20 June 2021
Orbit: 446 x 483 km, 81.2° (Epoch: 30 July)

Event Time Altitude Azimuth Distance (km) Brightness Sun altitude
Rises 00:21:26 0° 344° (NNW) 2,525 6.9 -22.7°
Reaches altitude 10° 00:23:34 10° 338° (NNW) 1,649 5.7 -22.5°
Enters shadow 00:26:00 34° 309° (NW) 802 3.7 -22.3°
